Starlink 30124

operational
NORAD ID: 56690 Int'l Des: 2023-067 Owner: SPXS Country: US Constellation: starlink
LEOCIRCULAR

关于 Starlink 30124

正在加载描述...

实时位置

正在加载3D地球...

即将过境

高度历史

Altitude vs Time

uPlot chart will show altitude changes over time

两行轨道根数

1 56690U 23067C 25352.04179851 .00000844 00000-0 77593-4 0 9997
2 56690 43.0025 358.4740 0001127 269.8050 90.2664 15.02522019143376
Epoch: Dec 18, 2025 • Age: 28 hours

当前状态

高度 558.4 km
速度 7.58 km/s
星下点 11.36°N, 1°W
发射日期 May 19, 2023
运行时间 2.5 years
类型 internet

技术详情

分类 Payload
质量 730.00 kg
干质量 700.00 kg
总质量 730.00 kg
长度 0.30 m
直径 4.10 m
跨度 29.00 m
形状 Box + pan
制造商 SPXS
平台类型 Starlink V2M
阶段状态 In Orbit
所有者/国家 SPXS/US

大型星座

Loading constellations...